Starlink 30071

operational
NORAD ID: 56708 Int'l Des: 2023-067 Owner: SPXS Country: US Constellation: starlink
LEOCIRCULAR

About Starlink 30071

Description loading...

Live Position

Loading 3D Globe...

Upcoming Passes

Altitude History

Altitude vs Time

uPlot chart will show altitude changes over time

Two-Line Element Set

1 56708U 23067W 26022.42789226 -.00003381 00000-0 -23537-3 0 9996
2 56708 43.0020 165.6093 0001299 264.8111 95.2583 15.02530824148703
Epoch: Jan 22, 2026 • Age: 19 hours

Current Status

Altitude 558.7 km
Velocity 7.59 km/s
Sub-Earth Point 18.23°N, 23.8°W
Launch Date May 19, 2023
Age 2.6 years
Type internet

Technical Details

Classification Payload
Mass 730.00 kg
Dry Mass 700.00 kg
Total Mass 730.00 kg
Length 0.30 m
Diameter 4.10 m
Span 29.00 m
Shape Box + pan
Manufacturer SPXS
Bus Type Starlink V2M
Phase Status In Orbit
Owner/State SPXS/US

Large Constellations

Loading constellations...